Weather History for Altus AFB, OK

Change the Weather History Date:

Wednesday, August 28, 2013

  Actual Average Record
Temperature  
Mean Temperature 84 °F -  
Max Temperature 98 °F 91 °F 111 °F (2011)
Min Temperature 72 °F 68 °F 62 °F (2010)
Cooling Degree Days 20    
Growing Degree Days 34 (Base 50)    
Moisture  
Dew Point 64 °F    
Average Humidity 52    
Maximum Humidity 88    
Minimum Humidity 30    
Precipitation  
Precipitation 0.00 in - - ()
Sea Level Pressure  
Sea Level Pressure 30.01 in    
Wind  
Wind Speed 10 mph (South)    
Max Wind Speed 20 mph    
Max Gust Speed 23 mph    
Visibility 10 miles    
Events      
Averages and records for this station are not official NWS values.
T = Trace of Precipitation, MM = Missing Value Source: NWS Daily Summary

Daily Weather History Graph

Daily Weather History Graph

Search for Another Location

Airport:

Trip Planner

Search our weather history database for the weather conditions in past years. The results will help you decide how hot, cold, wet, or windy it might be!

Date:

Astronomy

Aug. 28, 2013 Rise Set
Actual Time 7:07 AM CDT 8:08 PM CDT
Civil Twilight 6:41 AM CDT 8:34 PM CDT
Nautical Twilight 6:10 AM CDT 9:04 PM CDT
Astronomical Twilight 5:38 AM CDT 9:36 PM CDT
Moon 12:22 AM CDT (8/28) 2:40 PM CDT (8/28)
Length of Visible Light 13h 52m
Length of Day
13h 01m
Waning Gibbous, 47% of the Moon is Illuminated
Aug 28
Waning Gibbous
Sep 5
New
Sep 12
First Quarter
Sep 19
Full
Sep 26
Last Quarter

Hourly Weather History & Observations

Time (CDT) Temp. Heat Index Dew Point Humidity Pressure Visibility Wind Dir Wind Speed Gust Speed Precip Events Conditions
12:28 AM 78.8 °F - 68.0 °F 69% 30.05 in 10.0 mi SSE 8.1 mph - N/A   Overcast
12:58 AM 78.8 °F - 67.3 °F 68% 30.00 in 10.0 mi SSE 9.2 mph - N/A   Mostly Cloudy
1:33 AM 78.8 °F - 66.2 °F 65% 30.04 in 10.0 mi SSE 9.2 mph - N/A   Scattered Clouds
1:58 AM 77.4 °F - 66.9 °F 70% 29.99 in 10.0 mi SSE 8.1 mph - N/A   Clear
2:58 AM 76.8 °F - 67.8 °F 74% 29.99 in 10.0 mi South 11.5 mph - N/A   Clear
3:58 AM 75.6 °F - 68.0 °F 77% 29.98 in 10.0 mi South 8.1 mph - N/A   Clear
4:58 AM 74.1 °F - 68.0 °F 81% 29.99 in 10.0 mi SSE 4.6 mph - N/A   Clear
5:58 AM 73.0 °F - 68.0 °F 84% 29.99 in 10.0 mi SE 4.6 mph - N/A   Clear
6:58 AM 72.0 °F - 68.4 °F 88% 30.01 in 10.0 mi ESE 4.6 mph - N/A   Clear
7:58 AM 73.4 °F - 69.3 °F 87% 30.03 in 10.0 mi SSE 5.8 mph - N/A   Clear
8:56 AM 78.8 °F - 68.0 °F 69% 30.08 in 10.0 mi South 10.4 mph - N/A   Clear
9:56 AM 84.2 °F 87.3 °F 68.0 °F 58% 30.08 in 10.0 mi SW 11.5 mph - N/A   Clear
10:58 AM 87.8 °F 90.4 °F 66.4 °F 49% 30.04 in 10.0 mi SW 13.8 mph 17.3 mph N/A   Clear
11:58 AM 91.6 °F 93.9 °F 65.7 °F 42% 30.04 in 10.0 mi SSW 11.5 mph 18.4 mph N/A   Clear
12:09 PM 91.4 °F 93.2 °F 64.4 °F 41% 30.08 in 10.0 mi South 11.5 mph 17.3 mph N/A   Clear
12:58 PM 92.5 °F 94.6 °F 65.1 °F 40% 30.02 in 10.0 mi SW 6.9 mph - N/A   Partly Cloudy
1:13 PM 93.2 °F 94.9 °F 64.4 °F 38% 30.06 in 10.0 mi South 16.1 mph 19.6 mph N/A   Mostly Cloudy
1:18 PM 93.2 °F 94.9 °F 64.4 °F 38% 30.06 in 10.0 mi South 11.5 mph 18.4 mph N/A   Mostly Cloudy
1:23 PM 93.2 °F 94.9 °F 64.4 °F 38% 30.06 in 10.0 mi South 12.7 mph - N/A   Mostly Cloudy
1:28 PM 93.2 °F 94.9 °F 64.4 °F 38% 30.06 in 10.0 mi South 11.5 mph - N/A   Mostly Cloudy
1:58 PM 95.9 °F 98.0 °F 64.0 °F 35% 30.00 in 10.0 mi SSW 16.1 mph - N/A   Partly Cloudy
2:34 PM 96.8 °F 98.0 °F 62.6 °F 32% 30.04 in 10.0 mi South 12.7 mph 23.0 mph N/A   Scattered Clouds
2:58 PM 96.1 °F 97.3 °F 63.0 °F 33% 29.98 in 10.0 mi South 15.0 mph 21.9 mph N/A   Mostly Cloudy
3:58 PM 97.9 °F 98.8 °F 61.9 °F 30% 29.97 in 10.0 mi SSW 17.3 mph 19.6 mph N/A   Scattered Clouds
4:58 PM 97.5 °F 98.2 °F 61.0 °F 30% 29.95 in 10.0 mi SSW 17.3 mph - N/A   Scattered Clouds
5:58 PM 96.4 °F 96.5 °F 60.4 °F 30% 29.95 in 10.0 mi SSW 19.6 mph 23.0 mph N/A   Scattered Clouds
6:58 PM 94.1 °F 93.1 °F 58.1 °F 30% 29.96 in 10.0 mi SSW 12.7 mph - N/A   Clear
7:58 PM 91.8 °F 90.9 °F 58.8 °F 33% 29.96 in 10.0 mi South 8.1 mph - N/A   Clear
8:58 PM 83.7 °F 83.6 °F 59.4 °F 44% 30.01 in 10.0 mi SSE 5.8 mph - N/A   Clear
9:58 PM 80.4 °F 81.0 °F 58.8 °F 48% 30.03 in 10.0 mi SSE 8.1 mph - N/A   Clear
10:58 PM 81.3 °F 82.1 °F 60.8 °F 50% 29.99 in 10.0 mi South 8.1 mph - N/A   Clear
11:58 PM 79.3 °F - 61.7 °F 55% 29.99 in 10.0 mi South 8.1 mph - N/A   Clear